Zurück zum Katalog

STARLINK-36185

AktivKommunikationVLEO
NORAD 67204·PAYLOAD·🇺🇸 United States

Gestartet Dec 17, 2025 von Vandenberg Space Force Base

Loading…

Nächste Überflüge (nächste 24 Stunden)

TLE

AktuellSource: CelesTrak SupGP

Epoche: Sep 15, 2026, 03:05 UTC

1 67204C 25304N   26258.12895833 -.00039992  00000+0 -33520-2 0  2581
2 67204  70.0019  56.7422 0002571 269.3095  54.7751 14.98345385    13

Verfolge STARLINK-36185 in Echtzeit mit AllMySat

Download on the App Store